Location: Northcutt
(34.7304°N, 84.4305°W)
Time: 04:01:07
(UTC+00:00)

Vanguard 2 - Pass Details

Date: 05 October 2022
Orbit: 553 x 2933 km, 32.9° (Epoch: 05 December)

Event Time Altitude Azimuth Distance (km) Brightness Sun altitude
Rises 19:29:38 0° 264° (W) 4,763 12.1 40.8°
Reaches altitude 10° 19:32:18 10° 263° (W) 4,043 11.9 40.4°
Maximum altitude 19:44:02 84° 178° (S) 2,413 10.8 38.7°
Drops below altitude 10° 20:01:31 10° 93° (E) 5,738 11.7 36.0°
Sets 20:06:07 0° 93° (E) 6,784 12.0 35.3°
